[[{"header":{"parameterUnit":"m.s-1","parameterCategory":1,"la1":30.2991,"la2":30.254,"lo1":-89.0895,"lo2":-89.0444,"dy":0.0017,"dx":0.0017,"nx":28,"ny":28,"refTime":"2023-09-13T09:00:00:Z","depth":0,"parameterNumber":2,"parameterNumberName":"U-component_of_WINDS"},"data":[0,0,0,0,0,0,0,0,0,0,0,0,0,0,0,0,0,0,0,0,0,0,0,0,0,0,0,0,0,0,0,0,0,0,0,0,0,0,0,0,0,0,0,0,0,0,0,0,0,0,0,0,0,0,0,0,0,0,3.3277,3.3277,0,3.3306,3.3306,3.3306,3.3217,3.3214,3.3211,3.3209,3.3238,3.3242,3.3245,0,0,0,0,0,0,0,0,0,0,0,0,0,3.3142,3.3145,3.3277,3.3277,3.3277,3.3306,3.3306,3.3306,3.3217,3.3214,3.321,3.3207,3.3237,3.3241,3.3245,0,0,0,0,0,0,0,0,0,0,0,0,0,3.3189,3.3146,3.3277,3.3236,3.3233,3.3306,3.3306,3.3306,3.3218,3.3214,3.321,3.3206,3.3236,3.3241,3.3246,3.3359,0,0,3.3261,3.3263,0,0,0,0,0,0,0,0,3.3186,3.3194,3.3242,3.3239,3.3235,3.3253,3.3269,3.3324,3.3219,3.3224,3.3208,3.3204,3.3247,3.3251,3.3265,3.336,3.3362,3.3262,3.3265,3.3267,3.3268,0,0,0,0,0,0,0,3.3183,3.3192,3.3288,3.3243,3.3239,3.3216,3.3218,3.3279,3.3258,3.3223,3.3216,3.3221,3.3244,3.326,3.3265,3.3362,3.3261,3.3266,3.3269,3.3271,3.3547,3.3551,0,0,0,0,0,0,3.3185,3.319,3.3287,3.3289,3.32,3.3222,3.3224,3.3252,3.3257,3.3254,3.3224,3.3217,3.3254,3.3259,3.3266,3.3395,3.3267,3.3271,3.3274,3.3543,3.3548,3.3553,0,0,0,0,0,0,3.3183,3.3195,3.3286,3.3238,3.3248,3.3228,3.326,3.3254,3.327,3.3258,3.3254,3.3245,3.3251,3.3259,3.3335,3.3395,3.3274,3.3278,3.3538,3.3545,3.3551,3.3657,0,0,0,0,0,0,3.3179,3.3194,3.3238,3.3239,3.3251,3.3356,3.3264,3.3258,3.3279,3.3269,3.3276,3.3273,3.3248,3.3328,3.334,3.34,3.3282,3.3532,3.3541,3.3549,3.3648,3.3666,3.3682,0,0,0,0,0,3.3175,3.3268,3.3241,3.3253,3.3304,3.336,3.3366,3.3335,3.3285,3.3327,3.3319,3.3273,3.3387,3.3337,3.335,3.3412,3.3529,3.3539,3.3548,3.364,3.3663,3.3682,0,0,0,0,0,0,3.3275,3.3267,3.3237,3.3333,3.3348,3.3344,3.3397,3.336,3.3389,3.3379,3.3339,3.3342,3.3425,3.3426,3.3371,3.3519,3.3449,3.3462,3.3515,3.3536,3.3553,3.3549,3.3286,0,0,0,0,0,3.3308,3.3353,3.3345,3.343,3.3439,3.3417,3.344,3.3415,3.3428,3.3434,3.3431,3.3446,3.3484,3.3511,3.3546,3.3649,3.3647,3.3697,3.3714,3.3728,3.3739,3.3789,3.381,3.3585,3.3585,3.3585,0,0,3.3377,3.3378,3.341,3.345,3.3458,3.3505,3.3423,3.3477,3.3511,3.3442,3.3513,3.3512,3.3526,3.3615,3.3654,3.3618,3.3801,3.3741,3.3752,3.3755,3.3801,3.3823,3.3842,3.3592,3.359,3.3589,0,0,3.3525,3.3533,3.3603,3.3612,3.3625,3.361,3.3627,3.3629,3.3625,3.3696,3.3644,3.3684,3.3752,3.3763,3.3777,3.3928,3.3885,3.3941,3.4028,3.4078,3.4096,3.4111,3.4161,3.418,3.3952,3.3952,3.3952,0,3.3609,3.3678,3.3644,3.37,3.3718,3.3657,3.3727,3.3738,3.3762,3.3776,3.3736,3.3818,3.3823,3.3912,3.3948,3.3963,3.3979,3.3938,3.4096,3.4111,3.4125,3.4172,3.4192,3.3958,3.3958,3.3957,3.3956,0,3.3779,3.3827,3.3883,3.3905,3.393,3.3993,3.3967,3.3996,3.3969,3.3957,3.4028,3.4032,3.4065,3.4085,3.406,3.417,3.4147,3.4103,3.4031,3.4153,3.4197,3.4215,3.3967,3.3965,3.3963,3.3962,0,0,3.3991,3.3992,3.4013,3.4021,3.403,3.4066,3.4126,3.4158,3.4181,3.42,3.4247,3.4306,3.4263,3.428,3.4255,3.4299,3.4413,3.4248,3.4248,3.4276,3.4531,3.4562,3.4584,3.4387,3.439,3.4393,3.4529,0,3.4134,3.4235,3.4205,3.4306,3.4348,3.429,3.4341,3.4352,3.4343,3.4377,3.4367,3.4407,3.435,3.4359,3.4401,3.4391,3.4464,3.4381,3.4428,3.443,3.4423,3.4607,3.4641,3.4769,3.4546,3.4549,3.4551,0,3.4315,3.4339,3.4444,3.4442,3.4459,3.4505,3.453,3.4564,3.4574,3.4564,3.4581,3.4547,3.4603,3.4533,3.4609,3.4554,3.4571,3.4569,3.4574,3.4574,3.4496,3.461,3.4809,3.4827,3.4578,3.4576,3.4574,0,3.4455,3.4513,3.4582,3.4591,3.4593,3.4626,3.4628,3.4634,3.4654,3.4676,3.4688,3.4717,3.4732,3.4755,3.4728,3.468,3.4807,3.4736,3.4798,3.4799,3.4826,3.4824,3.5028,3.4843,3.4843,3.4842,3.4842,0,3.4616,3.4682,3.4644,3.4687,3.4757,3.4722,3.4793,3.4788,3.4793,3.4833,3.4786,3.4824,3.4788,3.4822,3.4802,3.4866,3.4875,3.4866,3.486,3.4869,3.4869,3.4878,3.4867,3.4847,3.4846,3.4845,3.4844,0,3.4783,3.4761,3.4832,3.4826,3.4826,3.4878,3.4873,3.4911,3.4898,3.4948,3.4958,3.4938,3.4975,3.4951,3.4991,3.4977,3.5059,3.5042,3.5056,3.505,3.5112,3.5105,3.5326,3.5351,3.5154,3.5156,3.5157,0,3.4886,3.4935,3.4934,3.4956,3.496,3.4998,3.5017,3.4984,3.5006,3.5019,3.5055,3.5089,3.5113,3.5176,3.5165,3.5193,3.5174,3.525,3.5178,3.5185,3.5171,3.5167,3.517,3.5263,3.5266,3.5267,3.5269,0,3.507,3.5056,3.5085,3.511,3.5134,3.5153,3.5167,3.5189,3.5155,3.5182,3.5219,3.5238,3.5276,3.5309,3.5333,3.5334,3.5296,3.5292,3.5307,3.5315,3.532,3.5314,3.5091,3.5286,3.5285,3.5283,3.5282,3.5282,3.5206,3.5245,3.5249,3.5282,3.5289,3.5303,3.5337,3.5328,3.5358,3.5386,3.5364,3.5408,3.5414,3.5442,3.5448,3.5481,3.545,3.5473,3.5479,3.5484,3.5491,3.5317,3.5486,3.5485,3.5485,3.5484,3.5484,0,3.5384,3.5383,3.5414,3.5435,3.5461,3.5422,3.5435,3.5459,3.5498,3.5507,3.5531,3.5573,3.5604,3.5594,3.5622,3.565,3.5632,3.5658,3.5654,3.5654,3.5519,3.5501,3.5671,3.5671,3.5671,3.5671,3.5671,3.5671,3.548,3.5542,3.5528,3.5593,3.5591,3.5633,3.5643,3.5655,3.5661,3.5709,3.5734,3.5728,3.5728,3.5755,3.5781,3.5778,3.5789,3.582,3.581,3.5683,3.5664,3.5646,3.5629,3.5823,3.5824,3.5941,3.5942,3.5943]},{"header":{"parameterUnit":"m.s-1","parameterCategory":1,"la1":30.2991,"la2":30.254,"lo1":-89.0895,"lo2":-89.0444,"dy":0.0017,"dx":0.0017,"nx":28,"ny":28,"refTime":"2023-09-13T09:00:00:Z","depth":0,"parameterNumber":3,"parameterNumberName":"V-component_of_WINDS"},"data":[0,0,0,0,0,0,0,0,0,0,0,0,0,0,0,0,0,0,0,0,0,0,0,0,0,0,0,0,0,0,0,0,0,0,0,0,0,0,0,0,0,0,0,0,0,0,0,0,0,0,0,0,0,0,0,0,0,0,1.6514,1.6514,0,1.6533,1.6533,1.6533,1.6506,1.6505,1.6504,1.6503,1.6522,1.6524,1.6525,0,0,0,0,0,0,0,0,0,0,0,0,0,1.6454,1.6456,1.6514,1.6514,1.6515,1.6533,1.6533,1.6533,1.6506,1.6505,1.6504,1.6503,1.6522,1.6524,1.6525,0,0,0,0,0,0,0,0,0,0,0,0,0,1.6477,1.6456,1.6514,1.6504,1.6503,1.6533,1.6533,1.6533,1.6507,1.6505,1.6504,1.6502,1.6521,1.6523,1.6525,1.6567,0,0,1.6532,1.6533,0,0,0,0,0,0,0,0,1.6476,1.648,1.6505,1.6504,1.6503,1.6516,1.6519,1.6544,1.6507,1.6505,1.6503,1.6502,1.6521,1.6523,1.653,1.6567,1.6568,1.6532,1.6533,1.6534,1.6535,0,0,0,0,0,0,0,1.6475,1.6479,1.6521,1.6505,1.6504,1.6497,1.6499,1.6523,1.6521,1.6505,1.6503,1.6506,1.6521,1.6528,1.653,1.6568,1.6532,1.6534,1.6535,1.6536,1.6637,1.6639,0,0,0,0,0,0,1.6474,1.6477,1.6521,1.6522,1.6486,1.6499,1.6501,1.6513,1.6521,1.652,1.6507,1.6505,1.6525,1.6528,1.6531,1.6577,1.6534,1.6536,1.6537,1.6636,1.6638,1.6639,0,0,0,0,0,0,1.6473,1.6478,1.652,1.6499,1.6504,1.6502,1.6515,1.6514,1.6522,1.6522,1.6521,1.6515,1.6524,1.6528,1.6557,1.6577,1.6537,1.6539,1.6634,1.6637,1.6639,1.6672,0,0,0,0,0,0,1.6472,1.6478,1.6494,1.65,1.6505,1.6547,1.6517,1.6516,1.6525,1.6522,1.6529,1.6529,1.6523,1.6554,1.6559,1.658,1.654,1.6632,1.6635,1.6638,1.6669,1.6675,1.668,0,0,0,0,0,1.647,1.6504,1.6495,1.6501,1.6525,1.6548,1.6551,1.6544,1.6527,1.6543,1.6542,1.6529,1.6575,1.6557,1.6563,1.6584,1.6631,1.6635,1.6638,1.6666,1.6673,1.668,0,0,0,0,0,0,1.6502,1.6504,1.6495,1.6532,1.654,1.6544,1.6563,1.6552,1.6565,1.6562,1.6552,1.6554,1.6585,1.6588,1.6568,1.6623,1.66,1.6604,1.662,1.6627,1.6632,1.663,1.6542,0,0,0,0,0,1.6513,1.6531,1.6533,1.6565,1.657,1.6566,1.6576,1.6569,1.6577,1.658,1.6582,1.659,1.6606,1.6617,1.6631,1.6669,1.6669,1.6686,1.6692,1.6696,1.67,1.6718,1.6725,1.665,1.665,1.665,0,0,1.6537,1.654,1.6553,1.6572,1.6577,1.6595,1.6569,1.659,1.6603,1.6583,1.661,1.6612,1.662,1.6653,1.6668,1.6656,1.672,1.67,1.6704,1.6705,1.6722,1.6729,1.6735,1.6652,1.6652,1.6652,0,0,1.6589,1.6594,1.6621,1.6626,1.6634,1.6631,1.6637,1.6642,1.6642,1.6669,1.6653,1.6669,1.6697,1.6703,1.6709,1.6761,1.6748,1.6766,1.6795,1.6812,1.6818,1.6823,1.6839,1.6845,1.677,1.677,1.677,0,1.6617,1.6645,1.6636,1.6657,1.6665,1.6647,1.6672,1.6678,1.6691,1.6696,1.6683,1.6716,1.6721,1.6753,1.6766,1.6772,1.6778,1.6765,1.6818,1.6823,1.6827,1.6843,1.6849,1.6772,1.6772,1.6771,1.6771,0,1.6678,1.6697,1.6717,1.6728,1.6739,1.6763,1.6756,1.6767,1.6759,1.6757,1.6784,1.6788,1.6802,1.681,1.6803,1.6841,1.6833,1.6819,1.6796,1.6836,1.6851,1.6857,1.6775,1.6774,1.6773,1.6773,0,0,1.6752,1.6756,1.6764,1.6767,1.6773,1.6788,1.681,1.6823,1.6832,1.6841,1.6858,1.6881,1.6867,1.6875,1.6868,1.6883,1.6921,1.6867,1.6867,1.6875,1.696,1.697,1.6977,1.6913,1.6914,1.6915,1.6959,0,1.6802,1.684,1.6831,1.6868,1.6884,1.6865,1.6884,1.689,1.6888,1.6901,1.6899,1.6915,1.6896,1.69,1.6915,1.6913,1.6937,1.691,1.6927,1.6928,1.6924,1.6985,1.6995,1.7037,1.6965,1.6966,1.6967,0,1.6866,1.6876,1.6914,1.6915,1.6921,1.6938,1.6948,1.6961,1.6966,1.6964,1.6971,1.6961,1.6981,1.6958,1.6985,1.6966,1.6973,1.6973,1.6974,1.6975,1.6949,1.6985,1.7051,1.7056,1.6976,1.6975,1.6974,0,1.6913,1.6936,1.6961,1.6965,1.6968,1.6979,1.6981,1.6985,1.6992,1.7001,1.7006,1.7017,1.7023,1.7032,1.7024,1.7008,1.7051,1.7028,1.7049,1.7049,1.7058,1.7057,1.7124,1.7065,1.7065,1.7065,1.7064,0,1.697,1.6993,1.6982,1.6997,1.7022,1.7011,1.7036,1.7036,1.7039,1.7053,1.7038,1.7052,1.7042,1.7054,1.7048,1.707,1.7073,1.7071,1.7069,1.7071,1.7071,1.7075,1.7071,1.7066,1.7066,1.7065,1.7065,0,1.7027,1.702,1.7046,1.7045,1.7045,1.7064,1.7063,1.7076,1.7073,1.7091,1.7094,1.7089,1.7102,1.7096,1.711,1.7106,1.7134,1.7129,1.7132,1.713,1.715,1.7147,1.7219,1.7228,1.7165,1.7166,1.7166,0,1.7062,1.7079,1.708,1.7088,1.709,1.7104,1.7111,1.71,1.7108,1.7114,1.7126,1.7138,1.7147,1.7169,1.7166,1.7177,1.7171,1.7195,1.7172,1.7173,1.7169,1.7167,1.7168,1.72,1.72,1.7201,1.7201,0,1.7125,1.712,1.7131,1.714,1.7148,1.7155,1.7161,1.7168,1.7158,1.7167,1.718,1.7187,1.7201,1.7212,1.7221,1.7222,1.7209,1.7209,1.7214,1.7216,1.7216,1.7214,1.7143,1.7207,1.7206,1.7206,1.7206,1.7205,1.7171,1.7184,1.7186,1.7198,1.72,1.7205,1.7217,1.7214,1.7225,1.7234,1.7228,1.7243,1.7245,1.7255,1.7258,1.7269,1.7259,1.7267,1.7268,1.727,1.7271,1.7215,1.7271,1.727,1.727,1.727,1.727,0,1.7231,1.7231,1.7242,1.7249,1.7258,1.7245,1.725,1.7258,1.7271,1.7274,1.7282,1.7296,1.7307,1.7304,1.7313,1.7322,1.7317,1.7325,1.7324,1.7324,1.7281,1.7275,1.7329,1.7329,1.7329,1.7329,1.7329,1.7329,1.7264,1.7285,1.728,1.7301,1.7301,1.7315,1.7318,1.7322,1.7324,1.734,1.7348,1.7346,1.7347,1.7356,1.7364,1.7363,1.7366,1.7376,1.7373,1.7333,1.7327,1.7321,1.7315,1.7378,1.7378,1.7414,1.7415,1.7415]}]]